Location: Follega
(52.8850°N, 5.7362°E)
Time: 04:32:57
(UTC+00:00)

Cosmos 2297 Rocket - Pass Details

Date: 02 October 2020
Orbit: 838 x 845 km, 71.0° (Epoch: 26 October)

Event Time Altitude Azimuth Distance (km) Brightness Sun altitude
Rises 22:33:26 0° 328° (NNW) 3,417 6.2 -40.0°
Reaches altitude 10° 22:35:53 10° 328° (NNW) 2,478 5.3 -40.1°
Enters shadow 22:37:53 23° 328° (NNW) 1,743 4.3 -40.2°
